Weather History for Salem, IL

Change the Weather History Date:

Saturday, March 2, 2013

  Actual Average Record
Temperature  
Mean Temperature 30 °F -  
Max Temperature 33 °F 53 °F 75 °F (1992)
Min Temperature 28 °F 32 °F 3 °F (1980)
Degree Days  
Heating Degree Days 34    
Moisture  
Dew Point 25 °F    
Average Humidity 80    
Maximum Humidity 93    
Minimum Humidity 62    
Precipitation  
Precipitation 0.00 in - - ()
Sea Level Pressure  
Sea Level Pressure 30.18 in    
Wind  
Wind Speed 12 mph (NNW)    
Max Wind Speed 16 mph    
Max Gust Speed 21 mph    
Visibility 9 miles    
Events Snow    
Averages and records for this station are not official NWS values.
T = Trace of Precipitation, MM = Missing Value Source: NWS Daily Summary

Daily Weather History Graph

Daily Weather History Graph

Search for Another Location

Airport:

Trip Planner

Search our weather history database for the weather conditions in past years. The results will help you decide how hot, cold, wet, or windy it might be!

Date:

Astronomy

Mar. 02, 2013 Rise Set
Actual Time 6:26 AM CST 5:50 PM CST
Civil Twilight 5:59 AM CST 6:16 PM CST
Nautical Twilight 5:28 AM CST 6:47 PM CST
Astronomical Twilight 4:58 AM CST 7:18 PM CST
Moon 11:25 PM CST (3/2) 8:58 AM CST (3/2)
Length of Visible Light 12h 17m
Length of Day
11h 23m
Waning Gibbous, 74% of the Moon is Illuminated
Mar 2
Waning Gibbous
Mar 4
Last Quarter
Mar 11
New
Mar 19
First Quarter
Mar 27
Full

Hourly Weather History & Observations

Time (CST) Temp. Windchill Dew Point Humidity Pressure Visibility Wind Dir Wind Speed Gust Speed Precip Events Conditions
12:15 AM 31.6 °F 21.6 °F 29.3 °F 91% 30.14 in 10.0 mi North 13.8 mph 18.4 mph N/A   Overcast
12:35 AM 31.5 °F 21.4 °F 29.3 °F 92% 30.14 in 10.0 mi North 13.8 mph - N/A   Overcast
12:55 AM 31.3 °F 22.1 °F 29.1 °F 92% 30.15 in 10.0 mi North 11.5 mph - N/A   Overcast
1:15 AM 31.1 °F 21.9 °F 29.1 °F 92% 30.15 in 7.0 mi NNW 11.5 mph - N/A Snow Light Snow
1:35 AM 31.1 °F 22.4 °F 29.1 °F 92% 30.15 in 7.0 mi North 10.4 mph - N/A Snow Light Snow
1:55 AM 31.1 °F 21.4 °F 28.9 °F 92% 30.15 in 7.0 mi North 12.7 mph - N/A Snow Light Snow
2:15 AM 30.9 °F 20.7 °F 28.6 °F 91% 30.14 in 10.0 mi NNW 13.8 mph - N/A Snow Light Snow
2:35 AM 30.7 °F 21.4 °F 28.4 °F 91% 30.14 in 10.0 mi NNW 11.5 mph - N/A Snow Light Snow
2:55 AM 30.2 °F 20.2 °F 28.4 °F 93% 30.14 in 10.0 mi NNW 12.7 mph - N/A Snow Light Snow
3:15 AM 30.2 °F 20.8 °F 27.5 °F 90% 30.14 in 10.0 mi NNW 11.5 mph - N/A Snow Light Snow
3:35 AM 30.2 °F 20.2 °F 26.6 °F 86% 30.14 in 10.0 mi NNW 12.7 mph - N/A   Overcast
3:55 AM 29.8 °F 19.8 °F 27.3 °F 90% 30.14 in 10.0 mi NNW 12.7 mph - N/A   Overcast
4:15 AM 29.3 °F 19.1 °F 26.2 °F 88% 30.15 in 10.0 mi NNW 12.7 mph - N/A Snow Light Snow
4:35 AM 29.3 °F 19.6 °F 26.1 °F 88% 30.15 in 10.0 mi NNW 11.5 mph - N/A   Overcast
4:55 AM 29.3 °F 19.1 °F 25.7 °F 86% 30.15 in 10.0 mi North 12.7 mph - N/A   Overcast
5:15 AM 29.7 °F 20.7 °F 26.1 °F 86% 30.15 in 10.0 mi North 10.4 mph - N/A   Overcast
5:35 AM 29.7 °F 20.1 °F 26.4 °F 88% 30.15 in 10.0 mi NNW 11.5 mph - N/A   Overcast
5:55 AM 30.2 °F 20.8 °F 26.6 °F 86% 30.15 in 10.0 mi NNW 11.5 mph - N/A   Overcast
6:15 AM 29.5 °F 19.3 °F 26.2 °F 88% 30.15 in 10.0 mi NNW 12.7 mph - N/A Snow Light Snow
6:35 AM 29.3 °F 19.6 °F 26.2 °F 88% 30.16 in 5.0 mi NNW 11.5 mph - N/A Snow Light Snow
6:55 AM 29.3 °F 19.6 °F 26.1 °F 88% 30.17 in 7.0 mi NNW 11.5 mph - N/A Snow Light Snow
7:15 AM 29.3 °F 19.6 °F 26.4 °F 89% 30.17 in 7.0 mi NNW 11.5 mph - N/A Snow Light Snow
7:35 AM 29.3 °F 20.2 °F 26.1 °F 88% 30.18 in 5.0 mi NNW 10.4 mph - N/A Snow Light Snow
7:55 AM 29.3 °F 19.6 °F 25.9 °F 87% 30.18 in 4.0 mi NNW 11.5 mph 19.6 mph N/A Snow Light Snow
8:15 AM 29.3 °F 19.6 °F 25.9 °F 87% 30.19 in 4.0 mi NNW 11.5 mph - N/A Snow Light Snow
8:35 AM 29.3 °F 18.6 °F 25.5 °F 86% 30.19 in 5.0 mi NNW 13.8 mph - N/A Snow Light Snow
8:55 AM 29.5 °F 18.8 °F 25.3 °F 85% 30.19 in 7.0 mi NNW 13.8 mph - N/A Snow Light Snow
9:15 AM 29.5 °F 18.8 °F 25.0 °F 83% 30.20 in 10.0 mi NNW 13.8 mph 20.7 mph N/A Snow Light Snow
9:35 AM 29.7 °F 19.6 °F 25.0 °F 83% 30.20 in 5.0 mi NW 12.7 mph 18.4 mph N/A Snow Light Snow
9:55 AM 29.8 °F 18.9 °F 24.6 °F 81% 30.20 in 7.0 mi NNW 15.0 mph 18.4 mph N/A Snow Light Snow
10:15 AM 30.0 °F 20.0 °F 25.2 °F 82% 30.20 in 7.0 mi NW 12.7 mph 18.4 mph N/A Snow Light Snow
10:35 AM 30.2 °F 19.8 °F 25.3 °F 82% 30.20 in 7.0 mi NNW 13.8 mph 18.4 mph N/A Snow Light Snow
10:55 AM 30.2 °F 19.8 °F 25.7 °F 83% 30.21 in 7.0 mi NW 13.8 mph - N/A Snow Light Snow
11:15 AM 30.4 °F 20.5 °F 25.5 °F 82% 30.21 in 7.0 mi NW 12.7 mph - N/A Snow Light Snow
11:35 AM 30.7 °F 21.4 °F 25.9 °F 82% 30.21 in 7.0 mi NW 11.5 mph - N/A Snow Light Snow
11:55 AM 32.0 °F 23.6 °F 26.6 °F 80% 30.20 in 7.0 mi NW 10.4 mph - N/A Snow Light Snow
12:15 PM 31.6 °F 22.6 °F 25.9 °F 79% 30.20 in 10.0 mi NW 11.5 mph 17.3 mph N/A   Overcast
12:35 PM 32.0 °F 22.5 °F 26.2 °F 79% 30.19 in 10.0 mi NNW 12.7 mph - N/A   Overcast
12:55 PM 32.0 °F 22.5 °F 26.6 °F 80% 30.18 in 7.0 mi NW 12.7 mph - N/A Snow Light Snow
1:15 PM 31.5 °F 22.3 °F 27.1 °F 84% 30.18 in 1.8 mi NNW 11.5 mph - N/A Snow Light Snow
1:35 PM 32.0 °F 23.0 °F 28.4 °F 87% 30.18 in 3.0 mi NNW 11.5 mph 20.7 mph N/A Snow Light Snow
1:55 PM 32.0 °F 23.6 °F 26.4 °F 80% 30.18 in 4.0 mi NW 10.4 mph - N/A Snow Light Snow
2:15 PM 33.8 °F 23.9 °F 26.4 °F 74% 30.17 in 10.0 mi NNW 15.0 mph - N/A   Overcast
2:35 PM 33.1 °F 23.9 °F 25.9 °F 75% 30.17 in 10.0 mi NNW 12.7 mph - N/A Snow Light Snow
2:55 PM 32.9 °F 23.7 °F 23.9 °F 69% 30.18 in 10.0 mi NNW 12.7 mph - N/A   Overcast
3:15 PM 32.9 °F 23.2 °F 24.6 °F 72% 30.18 in 10.0 mi NW 13.8 mph - N/A   Overcast
3:35 PM 33.1 °F 23.0 °F 25.0 °F 72% 30.18 in 10.0 mi NNW 15.0 mph 20.7 mph N/A   Overcast
3:55 PM 33.6 °F 24.6 °F 21.9 °F 62% 30.18 in 10.0 mi NNW 12.7 mph 18.4 mph N/A   Overcast
4:15 PM 32.9 °F 22.4 °F 21.2 °F 62% 30.18 in 10.0 mi NNW 16.1 mph - N/A   Mostly Cloudy
4:35 PM 32.9 °F 22.8 °F 21.7 °F 64% 30.18 in 10.0 mi NNW 15.0 mph 18.4 mph N/A   Mostly Cloudy
4:55 PM 32.9 °F 22.8 °F 23.0 °F 67% 30.18 in 10.0 mi NNW 15.0 mph 18.4 mph N/A   Mostly Cloudy
5:15 PM 32.5 °F 23.7 °F 21.7 °F 64% 30.18 in 10.0 mi NW 11.5 mph - N/A   Mostly Cloudy
5:35 PM 32.5 °F 23.2 °F 22.1 °F 65% 30.19 in 10.0 mi NW 12.7 mph - N/A   Overcast
5:55 PM 32.4 °F 24.0 °F 22.8 °F 68% 30.19 in 10.0 mi NW 10.4 mph - N/A   Overcast
6:15 PM 32.0 °F 24.8 °F 22.3 °F 67% 30.19 in 10.0 mi NW 8.1 mph - N/A   Mostly Cloudy
6:35 PM 32.0 °F 24.2 °F 23.0 °F 69% 30.20 in 10.0 mi NW 9.2 mph - N/A   Mostly Cloudy
6:55 PM 32.0 °F 24.8 °F 23.0 °F 69% 30.20 in 10.0 mi NW 8.1 mph - N/A   Mostly Cloudy
7:15 PM 32.0 °F 23.6 °F 22.3 °F 67% 30.20 in 10.0 mi NW 10.4 mph - N/A   Overcast
7:35 PM 32.0 °F 23.6 °F 22.3 °F 67% 30.20 in 10.0 mi NW 10.4 mph - N/A   Overcast
7:55 PM 31.6 °F 22.6 °F 22.3 °F 68% 30.20 in 10.0 mi WNW 11.5 mph 16.1 mph N/A   Overcast
8:15 PM 31.5 °F 22.3 °F 21.4 °F 66% 30.20 in 10.0 mi NW 11.5 mph 17.3 mph N/A   Overcast
8:35 PM 31.1 °F 22.4 °F 22.1 °F 69% 30.21 in 10.0 mi NW 10.4 mph - N/A   Overcast
8:55 PM 30.7 °F 24.1 °F 22.1 °F 70% 30.21 in 10.0 mi NW 6.9 mph - N/A   Scattered Clouds
9:15 PM 30.2 °F 22.6 °F 22.3 °F 72% 30.21 in 10.0 mi NW 8.1 mph - N/A   Clear
9:35 PM 30.0 °F 22.4 °F 22.3 °F 73% 30.21 in 10.0 mi NW 8.1 mph - N/A   Clear
9:55 PM 29.7 °F 23.7 °F 23.0 °F 76% 30.21 in 10.0 mi NW 5.8 mph - N/A   Clear
10:15 PM 29.3 °F 23.2 °F 23.2 °F 78% 30.21 in 10.0 mi NW 5.8 mph - N/A   Clear
10:35 PM 28.9 °F 23.9 °F 23.5 °F 80% 30.21 in 10.0 mi NNW 4.6 mph - N/A   Clear
10:55 PM 28.4 °F 24.6 °F 23.4 °F 81% 30.21 in 10.0 mi NW 3.5 mph - N/A   Clear
11:15 PM 28.4 °F 22.2 °F 22.6 °F 79% 30.20 in 10.0 mi NNW 5.8 mph - N/A   Clear
11:35 PM 28.2 °F 22.0 °F 22.3 °F 78% 30.20 in 10.0 mi NNW 5.8 mph - N/A   Clear
11:55 PM 28.0 °F 22.8 °F 22.1 °F 78% 30.20 in 10.0 mi NNW 4.6 mph - N/A   Clear